397  
ASUS45 KBOU 050510  
RWRCO  
 
WEATHER ROUNDUP FOR COLORADO  
NATIONAL WEATHER SERVICE DENVER/BOULDER CO  
1100 PM MDT SAT APR 04 2020  
 
NOTE: "FAIR" INDICATES FEW OR NO CLOUDS BELOW 12000 FEET WITH NO  
SIGNIFICANT WEATHER AND/OR S TO VISIBILITY
.  
 
COZ001>005-013-030-031-050600-   
..NORTHWEST COLORADO
 
 
 
CITY SKY/WX TMP DP RH WIND PRES REMARKS
 
CRAIG CLOUDY 35 26 69 S3 29.82S  
HAYDEN FAIR 41 23 48 E3 29.84F  
MEEKER MOCLDY 37 25 61 CALM 29.82S  
RANGELY FAIR 41 26 54 NE3 29.77F  
RABBIT EARS PA FAIR 30 19 64 SW5 29.94R WCI 25  
STEAMBOAT SPGS MOCLDY 40 23 51 E5 29.83S  
WALDEN MOCLDY 32 19 59 SE6 29.88F WCI 26  

 
 
COZ006>008-011-050600-   
..WEST CENTRAL VALLEYS
 
 
 
CITY SKY/WX TMP DP RH WIND PRES REMARKS
 
GRAND JUNCTION FAIR 48 24 39 E7 29.76F  
MONTROSE CLOUDY 50 23 34 SE10 29.84S  
EAGLE CLOUDY 41 26 55 E5 29.87F  
RIFLE FAIR 45 26 47 SE6 29.81S  
DELTA CLOUDY 52 22 30 NE3 29.81S  
NUCLA CLOUDY 46 19 34 E8 29.86R  

 
 
COZ017>023-064>068-050600-   
..SOUTHWEST COLORADO
 
 
 
CITY SKY/WX TMP DP RH WIND PRES REMARKS
 
DURANGO CLOUDY 41 22 46 CALM 29.89R  
CORTEZ FAIR 38 20 48 NE6 29.85R  
PAGOSA SPRINGS CLOUDY 40 22 48 CALM 29.94S  
TELLURIDE CLOUDY 43 16 33 SE7 29.97R  
WOLF CREEK PAS MOCLDY 28 14 54 S22G32 30.09S WCI 15  

 
 
COZ009-010-012-014-032>034-037-058>063-050600-   
..CENTRAL COLORADO
 
 
 
CITY SKY/WX TMP DP RH WIND PRES REMARKS
 
ASPEN FAIR 37 23 56 S9 29.88F  
BUENA VISTA CLOUDY 38 22 52 W6 29.92F  
COPPER MTN FAIR 28 14 54 S12G17 30.01S WCI 18  
BERTHOUD PASS NOT AVBL  
DAKOTA HILL FAIR 27 14 59 SW6 29.97S WCI 20  
COTTONWOOD PAS CLOUDY 37 19 48 CALM 29.98S  
GUNNISON CLOUDY 40 24 53 N5 29.92S  
GRANBY MOCLDY 35 26 67 CALM 29.91F  
KREMMLING FAIR 34 27 75 CALM 29.89S  
LEADVILLE CLOUDY 29 19 66 CALM 29.95S  
MONARCH PASS CLOUDY 28 16 59 SW22 30.13S WCI 15  
SALIDA CLOUDY 44 25 47 SE7 29.99S  
SUNLIGHT CLOUDY 30 14 51 SW13G18 30.00S WCI 20  
WILKERSON PASS FAIR 28 19 69 S6 30.02F WCI 22  

 
 
COZ069>075-050600-   
..SAN LUIS VALLEY/SANGRE DE CRISTO MOUNTAINS
 
 
 
CITY SKY/WX TMP DP RH WIND PRES REMARKS
 
ALAMOSA FAIR 33 10 38 SW8 29.92F WCI 26  
DEL NORTE MOCLDY 36 14 40 W10 29.94F  
LA VETA PASS FAIR 34 14 44 SW7 30.00S WCI 28  
SAGUACHE FAIR 32 12 43 N3 29.94S  

 
 
COZ035-036-038>040-050600-   
..NORTHERN COLORADO FRONT RANGE
 
 
 
CITY SKY/WX TMP DP RH WIND PRES REMARKS
 
DENVER INTL AP FAIR 44 28 53 S20 29.83F  
AURORA PTCLDY 44 27 50 S15 29.85S  
WATKINS NOT AVBL  
ERIE FAIR 40 28 62 CALM 29.88S  
BOULDER FAIR 46 28 49 SW6 29.82S  
CENTENNIAL FAIR 45 26 47 SE10 29.84F  
BROOMFIELD NOT AVBL  
FORT COLLINS FAIR 48 26 42 SW6 29.82S  
LONGMONT FAIR 43 28 54 SE3 29.84S  

 
 
COZ041-046-047-076>085-087-088-050600-   
..PIKES PEAK/PALMER DIVIDE AND SOUTHERN FOOTHILLS
 
 
 
CITY SKY/WX TMP DP RH WIND PRES REMARKS
 
COLO. SPRINGS FAIR 40 26 57 E7 29.92R  
A. F. ACADEMY FAIR 39 26 59 SE10 29.90R  
SCHRIEVER AFB NOT AVBL  
CHEYENNE MTN FAIR 39 25 57 SE5 29.88R  
ELLICOTT FAIR 36 25 62 E14 29.91S  
FALCON FAIR 33 24 69 CALM 29.94S  
FORT CARSON FAIR 40 26 56 E5 29.91R  
LIMON FAIR 36 24 62 SE14 29.92R  
MONUMENT HILL FAIR 36 27 69 SE16 29.91S  
CANON CITY NOT AVBL  
WALSENBURG NOT AVBL  
TRINIDAD FAIR 48 22 35 NE5 29.87R  

 
 
COZ042>045-048>051-090-091-050600-   
..NORTHEAST COLORADO
 
 
 
CITY SKY/WX TMP DP RH WIND PRES REMARKS
 
GREELEY FAIR 45 29 53 S9 29.83R  
AKRON MOCLDY 40 26 57 S17 29.88S  
BURLINGTON FAIR 39 21 48 SE18 29.93F  
WRAY FAIR 39 23 52 E7 29.93S  
YUMA NOT AVBL  
STERLING FAIR 43 28 56 S18 29.86R  
HOLYOKE FAIR 37 23 56 SE13 29.92S  
FORT MORGAN FAIR 43 24 47 SE16G23 29.87S  

 
 
COZ086-089-092>099-050600-   
..SOUTHEAST COLORADO
 
 
 
CITY SKY/WX TMP DP RH WIND PRES REMARKS
 
PUEBLO FAIR 44 27 51 NE13 29.85F  
LA JUNTA FAIR 50 29 44 E15 29.84S  
LAMAR FAIR 42 26 53 E8 29.89S  
SPRINGFIELD N/A 40 27 59 S13 29.92F  

 
 
 
CLICK HERE TO GO TO PREVIOUS BULLETINS.

The Nexlab CO Page Main Text Page